Wind_Speed
12 11 3 2 2 1 1 2 1 2 1 4 3 2 4 3 6 7 9 8 5 4 3 5 6 5 4 7 8 7 6 3 2 2 4 7 9 8 7 9 11 14 15 18 18 18 18 18 20 22 22 21 19 18 18 18 19 19 17 17 17 18 19 20 21 21 19 18 17 16 15 15 14 13 12 11 10 9 9 9 8 7 7 7 7 7 7 7 7 7 8 8 9 10 11 12 12
11 9 5 3 3 2 1 1 1 3 2 5 2 2 4 5 6 7 8 6 4 6 7 9 9 9 8 10 7 5 7 7 3 3 6 11 12 8 7 9 14 16 15 17 18 18 19 18 19 21 21 20 18 18 18 17 17 19 18 17 17 17 18 19 20 19 18 17 16 15 13 13 12 12 11 10 9 9 8 8 7 6 6 7 7 7 7 7 7 8 8 9 10 10 11 12 13
11 10 7 4 3 3 1 1 1 3 4 5 3 2 3 6 6 6 6 7 9 11 10 10 9 6 4 7 4 3 5 5 7 8 7 11 11 8 9 11 15 16 15 18 19 18 18 18 20 21 21 20 18 18 18 17 17 18 18 17 17 18 18 18 18 18 17 15 14 13 12 11 11 10 10 9 8 8 7 7 6 6 6 6 7 7 7 7 8 8 9 9 10 10 11 12 13
11 10 6 3 2 1 1 1 1 2 4 3 3 2 3 6 8 8 8 10 11 9 7 7 6 4 3 7 5 5 6 5 7 8 7 9 10 12 12 12 14 15 17 18 19 19 17 17 19 20 21 21 18 19 18 17 18 18 18 17 17 17 18 18 17 17 15 13 13 12 12 11 10 9 9 8 7 7 6 6 5 5 6 6 6 7 7 7 8 8 9 9 10 10 11 12 11
12 8 3 2 2 1 1 1 1 1 4 2 3 3 4 8 11 11 9 9 7 5 6 5 5 4 6 8 2 4 6 5 6 7 9 10 12 15 14 13 13 14 17 18 19 19 19 18 18 19 20 21 19 19 17 16 18 18 18 17 16 16 18 19 18 17 14 13 12 11 11 10 10 9 8 7 7 6 5 5 4 5 5 5 6 6 6 7 8 8 8 9 9 10 10 11 10
11 6 2 1 0 0 1 2 2 3 3 1 3 5 5 9 11 13 11 8 6 6 6 5 7 7 7 7 4 5 4 4 6 7 10 14 16 16 16 15 12 14 15 16 18 18 19 20 19 18 19 20 19 18 17 17 18 18 18 17 17 17 17 18 17 15 14 12 11 11 11 10 9 9 8 7 6 5 4 4 4 4 4 4 5 6 6 7 7 7 7 7 8 9 9 9 9
8 3 1 1 1 0 0 3 3 3 3 1 2 7 8 9 10 13 12 8 7 6 6 7 9 10 7 4 5 6 3 4 7 7 12 17 17 16 17 16 14 14 14 15 17 17 18 19 19 18 17 18 18 18 17 17 19 19 18 17 17 17 17 16 15 13 12 12 11 11 11 10 9 8 7 6 5 4 4 3 3 3 3 4 5 6 6 6 7 7 6 7 7 7 8 7 8
5 1 0 1 0 1 1 3 2 2 2 1 2 7 9 10 10 10 10 7 6 6 7 9 7 8 7 3 5 5 5 7 8 11 15 17 16 15 16 17 16 14 13 14 17 17 17 19 19 18 17 18 18 19 18 18 18 18 18 17 16 16 16 15 13 12 12 11 10 10 10 9 8 7 6 5 4 3 3 3 2 2 3 4 5 6 6 7 7 6 6 7 7 7 7 7 8
3 1 0 1 0 2 2 2 2 2 2 3 4 7 9 9 7 8 9 6 7 8 7 6 3 6 8 7 7 4 5 9 13 15 16 16 16 16 15 16 17 15 14 14 16 16 17 18 19 18 17 17 18 18 18 17 17 17 16 16 15 15 14 13 12 11 11 10 10 9 9 8 7 6 5 4 4 4 3 2 2 2 3 5 6 7 7 7 6 6 7 7 8 8 9 9 10
2 2 0 1 1 2 3 2 2 2 3 4 4 7 10 8 6 8 9 8 9 8 7 5 4 8 10 9 7 4 6 13 16 16 15 16 16 15 14 15 16 17 16 15 15 15 15 17 17 17 17 17 17 18 18 17 16 15 14 14 14 13 12 11 10 10 9 9 9 8 8 7 7 6 5 4 4 3 3 2 2 3 5 6 6 6 6 5 6 6 7 7 8 9 9 10 10
1 1 0 1 2 2 2 3 3 3 4 4 5 7 7 7 8 8 9 9 7 7 8 6 9 12 11 8 5 5 9 15 17 17 16 16 16 14 15 16 15 16 16 16 16 15 15 15 15 16 17 17 18 18 17 15 15 13 12 12 12 12 11 10 9 9 9 8 8 7 7 6 6 5 4 4 3 3 2 2 2 4 6 7 6 6 6 5 6 6 7 7 8 10 10 10 10
1 2 1 1 2 1 2 4 4 5 5 5 6 6 5 8 9 9 11 10 7 9 7 4 9 11 10 8 5 8 12 15 17 17 17 16 15 15 15 15 15 15 16 17 17 17 16 15 15 15 16 17 18 17 16 15 13 12 12 12 11 11 10 10 9 9 8 7 7 7 6 6 5 5 4 4 3 2 1 1 2 5 7 6 7 6 6 6 6 7 8 9 9 11 11 10 10
2 2 1 1 1 1 4 4 4 5 4 5 7 6 6 7 8 10 11 10 9 8 5 5 10 9 8 8 6 9 12 15 17 17 17 17 16 15 15 15 15 16 16 16 17 17 17 16 15 14 15 17 17 16 15 14 13 12 12 12 11 11 10 10 9 9 8 7 7 7 6 6 5 5 4 3 2 1 1 1 2 4 5 7 9 8 8 8 8 8 9 9 10 11 12 10 9
2 2 1 1 1 3 5 4 6 5 4 6 7 7 7 5 5 9 11 13 7 4 7 9 10 8 8 8 6 8 12 16 18 17 17 16 16 15 15 15 15 16 16 16 16 17 16 16 15 15 15 16 16 15 14 14 13 12 12 12 11 11 11 10 9 8 8 7 7 6 5 5 4 4 3 3 2 1 1 0 1 3 3 8 9 9 10 11 10 9 9 10 10 11 11 9 8
2 1 0 2 3 5 3 3 7 6 4 8 8 9 7 3 7 8 8 11 6 5 10 7 5 4 7 9 8 11 16 20 19 18 18 16 17 15 15 15 16 17 15 15 16 16 16 16 16 16 16 15 16 14 13 13 12 12 12 11 11 11 10 9 9 8 8 7 6 5 4 4 4 3 3 2 2 2 2 1 1 3 4 9 10 9 10 11 11 10 10 11 10 10 9 9 8
2 1 1 2 4 5 4 3 7 5 5 9 10 11 7 5 9 6 2 4 8 10 8 6 4 1 5 7 8 17 21 22 20 19 19 17 17 15 15 15 16 17 15 15 15 15 16 17 16 16 16 14 14 13 13 13 12 12 11 10 10 10 10 9 8 8 8 7 6 5 5 4 4 4 3 3 3 4 3 3 3 4 5 10 10 9 10 10 10 10 10 10 10 9 8 7 7
2 2 1 2 4 5 6 7 7 5 7 10 12 12 9 8 7 2 3 6 12 12 5 5 2 1 6 7 13 23 24 22 21 20 20 18 17 15 15 16 16 16 15 16 16 14 16 18 16 15 15 14 14 13 12 12 11 11 10 10 10 9 9 9 9 9 8 8 7 6 6 5 5 5 4 5 4 4 4 4 4 4 5 9 10 8 9 11 12 11 10 10 10 9 8 7 6
3 2 2 2 4 5 7 10 8 6 10 13 13 14 11 11 9 5 7 9 11 10 6 6 4 4 9 12 19 24 23 23 22 22 21 18 17 16 16 16 16 16 15 16 17 16 17 17 16 15 15 15 14 13 12 11 11 11 10 10 10 10 10 10 9 9 9 8 8 7 6 6 6 5 6 6 5 5 6 6 5 4 5 8 9 8 10 12 12 11 10 10 10 10 10 9 8
4 2 2 3 4 6 6 9 8 7 12 14 13 14 12 12 11 8 9 10 12 10 7 7 7 9 12 16 22 23 23 23 22 22 22 20 19 18 18 17 16 16 15 16 17 17 17 16 16 16 15 15 14 13 12 11 11 11 10 11 11 10 10 10 10 9 9 9 8 8 7 7 6 6 7 6 6 6 7 7 6 6 6 6 7 8 9 10 11 10 9 9 9 9 10 10 9
4 2 3 4 5 6 7 11 10 8 13 16 14 12 11 11 11 8 9 12 13 11 10 10 10 12 13 17 21 22 23 22 22 22 22 21 20 20 19 19 18 17 16 15 16 17 16 16 16 16 15 15 14 13 13 11 11 11 11 11 11 11 10 10 10 10 9 9 8 8 8 8 7 8 7 7 7 8 9 8 7 7 7 6 6 6 6 8 9 9 9 8 8 7 8 9 9
3 4 6 4 5 7 9 14 12 9 14 16 14 13 11 11 10 8 11 12 10 10 13 14 15 16 17 18 20 22 23 22 22 21 21 22 20 20 19 19 19 17 17 16 16 17 16 16 17 16 16 16 15 13 13 12 12 11 11 11 11 11 10 10 10 9 9 9 9 9 9 8 8 9 8 8 9 10 10 8 8 8 8 8 7 6 6 8 9 8 8 8 6 5 5 8 9
2 6 9 4 5 7 10 14 13 12 13 14 15 14 12 11 9 11 15 12 7 9 13 13 15 18 19 19 20 20 21 21 22 21 21 21 21 20 19 18 18 17 17 17 17 17 16 17 17 16 15 16 16 15 14 13 13 13 12 12 12 11 11 10 10 10 10 10 10 10 10 9 9 10 10 9 10 10 10 9 9 9 9 9 9 8 7 8 8 8 8 7 5 3 4 7 10
4 6 7 5 6 6 7 13 14 15 15 15 15 13 12 13 10 12 16 9 2 5 11 12 13 17 21 21 20 19 19 20 21 23 22 22 22 21 19 19 18 18 18 17 17 17 17 17 17 16 13 14 16 17 16 14 13 14 13 13 13 12 11 11 11 11 11 10 10 10 10 10 10 11 11 11 11 10 10 10 9 9 9 10 10 9 8 8 9 9 8 7 6 4 5 8 10
7 7 5 5 7 7 9 14 15 17 18 16 14 12 15 15 10 11 16 6 3 4 12 13 14 17 20 19 19 19 19 20 22 22 21 21 21 20 18 17 17 17 16 17 16 16 16 16 16 15 14 15 16 17 16 15 14 14 14 13 13 13 12 12 12 12 12 11 11 11 10 11 11 11 12 12 11 10 10 10 10 9 9 10 11 10 10 9 9 10 9 7 7 6 7 8 10
9 9 5 3 5 7 11 14 16 17 14 13 14 14 16 13 9 12 15 5 2 9 15 15 16 17 17 17 18 17 17 18 19 19 18 16 16 17 15 15 14 14 15 15 15 15 16 16 16 16 15 16 16 16 16 16 15 15 14 14 14 13 13 14 14 13 13 13 13 12 12 12 12 12 12 11 11 10 10 10 10 10 10 10 11 11 11 10 9 9 9 7 7 7 8 9 12
8 9 5 3 4 7 12 14 16 15 9 13 16 13 11 8 8 10 10 5 7 12 16 16 17 17 16 16 17 16 15 17 18 18 17 15 15 16 16 15 14 15 15 15 15 16 16 17 17 18 17 16 16 16 16 16 16 16 15 15 14 13 13 14 14 14 14 14 14 14 13 12 12 12 12 12 11 11 11 11 11 10 10 10 10 11 11 11 10 10 9 7 6 7 7 9 11
4 6 1 3 4 8 13 14 15 13 11 16 16 11 8 8 6 7 7 8 12 13 15 17 17 17 16 15 15 14 15 18 19 17 17 17 17 17 17 16 16 16 16 16 16 16 17 19 19 19 18 16 16 16 16 16 15 17 17 16 15 15 14 13 13 15 15 15 15 14 13 13 13 13 13 13 13 13 13 13 13 12 11 11 10 11 11 10 10 8 8 7 6 6 7 8 9
4 7 4 2 5 8 11 14 15 11 9 12 12 10 7 7 6 6 8 12 13 15 15 17 16 15 15 15 14 12 14 16 17 17 19 19 17 17 18 18 18 17 17 18 18 17 19 20 20 21 19 18 17 17 18 18 16 17 18 17 17 17 16 13 14 16 16 16 16 14 14 14 14 14 15 14 14 15 14 13 13 12 11 11 10 10 9 9 8 7 6 6 6 5 5 5 6
6 8 5 6 8 8 9 11 14 12 9 11 13 8 5 9 8 5 11 12 13 15 15 16 15 14 13 14 12 11 13 15 17 17 19 19 16 17 18 18 18 17 17 18 18 18 19 19 20 21 21 21 21 21 22 21 19 15 15 17 18 18 17 15 16 17 16 16 16 15 15 15 15 15 15 15 14 14 13 12 11 10 10 11 11 11 8 6 7 7 6 5 5 4 4 4 4
6 5 4 7 6 6 7 7 13 10 9 16 14 5 8 13 9 7 13 14 14 14 14 15 14 12 13 12 11 11 13 15 17 18 17 17 16 17 18 18 18 17 16 16 18 19 18 18 19 21 23 23 24 24 24 23 22 18 16 17 18 18 17 17 18 17 17 16 16 16 16 16 16 16 15 15 14 13 12 10 9 10 11 10 10 11 8 5 5 6 6 5 4 3 3 2 3
6 5 4 5 4 7 6 7 14 9 7 16 14 7 7 11 10 10 13 16 16 15 14 15 13 13 12 12 12 12 13 16 17 18 17 17 17 17 17 17 18 18 16 16 19 20 20 20 22 23 24 24 24 25 24 24 23 21 19 19 18 17 17 17 17 17 17 16 16 16 16 16 16 16 15 15 14 12 10 9 9 12 11 9 9 10 8 6 5 5 4 4 3 3 2 2 3
5 4 4 4 4 7 7 7 13 10 8 13 13 8 5 7 11 12 13 15 17 15 14 15 14 14 13 12 13 11 12 16 17 18 18 18 17 17 18 18 19 19 18 18 19 20 22 23 25 24 24 24 24 24 24 23 22 21 20 19 18 18 17 18 17 16 17 17 17 17 17 16 16 16 15 15 13 11 9 9 11 11 8 8 9 9 7 5 5 4 3 3 3 3 3 3 4
3 3 4 6 5 7 7 7 10 9 11 12 12 7 3 3 10 14 14 16 16 14 14 15 15 14 13 11 11 11 11 13 16 18 19 18 18 17 18 18 19 20 19 20 21 22 23 24 25 24 24 24 24 24 23 23 22 21 20 19 18 16 15 16 17 16 16 17 17 17 17 17 16 16 15 14 14 12 10 10 10 8 7 8 8 6 6 5 4 4 3 3 3 4 5 5 5
4 2 3 5 7 8 8 8 9 10 13 14 12 9 5 2 8 14 16 17 16 14 14 15 14 13 13 11 11 11 11 12 13 17 20 19 18 18 18 19 20 20 20 21 23 24 25 25 25 24 24 24 24 23 23 22 22 21 20 19 17 14 13 14 15 16 16 17 17 17 17 16 16 16 16 15 15 14 12 11 9 7 7 8 6 4 4 4 4 4 4 4 4 5 5 5 5
8 7 5 4 6 9 10 9 10 14 15 15 13 13 11 3 7 13 15 16 16 15 14 14 14 14 13 12 12 12 12 13 14 17 20 20 19 19 19 19 19 20 20 21 23 25 26 26 26 26 25 24 24 23 23 22 22 22 20 17 15 14 14 14 15 16 17 17 17 17 18 17 16 16 16 15 15 14 13 11 9 8 8 6 5 4 4 4 4 5 5 4 4 5 4 5 5
12 9 8 9 8 8 9 7 9 15 13 14 15 14 13 6 7 12 13 15 15 14 13 12 13 14 13 12 12 12 13 14 14 17 20 20 20 20 20 19 19 20 20 22 24 26 26 26 26 26 26 26 24 24 23 22 21 21 20 18 17 16 17 17 18 19 18 18 18 18 18 18 17 17 14 12 13 12 10 8 8 8 7 5 4 4 4 4 4 5 5 4 4 4 3 4 5
12 8 7 10 10 7 8 7 8 14 11 12 12 9 9 5 7 11 12 13 14 14 14 13 13 13 12 13 13 14 14 13 13 16 19 20 20 20 20 20 20 20 21 23 24 25 27 27 27 27 27 27 26 25 24 23 22 21 20 20 20 20 21 21 20 20 19 18 18 18 18 17 17 16 11 9 10 10 7 7 8 7 6 5 4 4 4 3 3 4 3 3 4 4 3 3 4
12 9 8 9 7 5 7 8 10 13 10 8 5 6 8 4 5 9 11 14 15 16 16 15 15 14 12 14 15 15 13 11 12 14 18 19 20 21 21 21 21 22 22 24 25 25 28 29 28 28 28 28 28 27 27 26 25 24 22 22 21 21 22 23 21 21 20 18 18 17 15 14 15 13 9 7 8 8 8 8 8 6 5 5 5 5 4 4 4 3 3 3 3 4 4 4 3
10 8 7 8 6 4 5 6 9 11 9 6 4 8 9 3 5 10 13 15 14 15 16 14 15 14 13 14 15 15 13 12 13 14 17 20 21 22 21 20 22 23 23 25 26 27 29 30 30 30 29 29 29 29 28 28 27 26 25 24 22 21 21 22 21 21 20 18 18 17 13 12 13 11 8 7 7 8 10 10 7 5 4 5 5 5 5 5 5 4 3 3 3 3 4 3 2
7 7 8 7 8 7 5 6 9 10 4 2 5 7 7 3 5 9 13 15 11 12 14 13 13 14 15 15 14 14 15 14 14 15 16 19 21 22 21 22 22 22 22 24 26 27 29 31 32 32 31 30 30 30 29 28 27 25 24 24 23 20 20 20 20 20 20 19 17 17 15 13 12 10 8 9 10 11 12 11 7 5 5 5 5 5 6 6 5 4 4 3 3 3 3 2 1
7 9 10 7 11 12 8 7 9 7 3 3 6 5 7 6 9 10 10 13 13 12 14 14 14 14 14 14 15 15 16 15 15 16 16 17 20 22 22 22 22 22 22 24 26 28 31 34 34 33 32 31 31 30 29 28 27 23 20 20 19 17 17 16 16 17 19 18 17 17 17 15 14 12 10 11 12 13 13 11 8 6 6 5 5 6 6 6 5 5 4 3 3 2 2 2 1
6 9 11 9 13 12 7 11 9 5 5 7 8 6 7 7 11 12 9 11 15 12 14 17 15 15 14 14 15 15 15 15 15 16 16 17 19 21 22 21 22 22 24 26 28 31 35 35 35 34 33 32 31 31 29 28 27 22 17 17 16 16 16 15 15 16 17 18 18 18 17 15 15 13 13 14 14 13 12 11 10 8 6 6 7 7 6 6 5 5 4 3 3 2 2 2 1
6 7 9 9 11 11 11 14 11 6 6 8 12 10 7 4 9 12 11 12 15 14 15 18 16 15 16 14 15 15 15 15 14 15 16 16 19 20 21 22 24 25 26 27 28 31 35 36 35 35 34 33 32 31 30 29 27 22 19 20 19 18 17 16 16 18 19 17 16 18 17 13 14 15 15 15 14 12 12 12 11 8 6 7 7 7 7 6 5 5 4 3 3 2 1 2 1
5 6 11 11 10 12 14 13 11 6 1 5 12 9 6 6 6 8 12 12 13 15 18 19 17 17 18 17 17 17 17 16 14 15 16 16 19 22 23 24 27 28 26 26 28 31 35 37 36 36 36 34 33 32 31 31 28 22 20 22 21 21 20 18 20 20 19 16 15 17 15 12 13 15 15 14 13 13 13 12 10 7 7 7 7 7 7 7 6 6 5 4 3 2 2 2 1
2 5 10 10 10 13 14 12 9 5 3 4 8 6 4 8 3 5 10 12 13 17 20 21 20 20 20 20 20 19 18 17 16 16 17 18 20 23 24 25 27 27 24 26 30 33 36 37 37 37 36 35 34 33 32 32 31 28 26 25 24 24 23 21 21 20 18 16 15 15 13 11 13 13 14 14 14 14 13 11 10 8 8 8 8 8 8 8 8 7 6 5 4 3 3 2 2
2 7 7 5 5 8 9 9 5 4 5 7 9 10 7 7 3 5 7 10 14 17 18 20 20 20 20 19 20 20 17 16 16 17 17 19 22 24 24 24 25 25 24 28 32 33 35 37 37 37 37 36 35 34 33 32 32 31 31 30 28 26 25 23 21 19 19 17 15 14 12 12 12 12 14 16 15 15 13 12 11 9 8 8 9 9 9 9 8 8 7 6 5 4 4 3 2
9 10 8 7 5 3 2 1 3 4 6 8 11 15 11 7 5 7 7 10 14 15 13 15 18 19 20 18 18 19 16 15 16 17 17 20 23 24 23 23 24 24 24 27 29 30 33 36 37 38 38 37 35 35 34 33 32 32 32 32 31 29 27 25 23 20 20 18 17 17 16 15 15 15 17 18 17 15 14 13 12 10 10 10 11 10 10 9 7 7 7 7 6 5 4 4 3
10 8 8 7 4 3 3 2 2 5 6 6 8 14 13 10 6 7 10 12 14 14 13 16 19 21 20 19 18 18 17 16 16 16 16 17 18 19 21 23 23 23 23 25 27 28 31 34 37 38 38 37 36 35 34 33 33 34 33 33 32 30 28 27 25 23 22 21 20 21 20 19 18 19 19 19 18 16 15 14 13 13 12 11 12 11 10 9 8 8 8 7 7 6 5 5 4
8 7 9 8 4 4 4 3 4 6 5 2 4 10 10 9 9 6 9 12 13 14 15 14 17 20 20 20 19 17 16 17 17 15 15 15 14 16 21 23 23 23 24 26 27 26 28 33 37 37 38 38 36 35 35 34 34 35 34 33 32 31 30 28 27 25 24 23 22 23 22 22 22 22 22 21 19 17 16 16 16 15 14 12 12 11 10 10 9 9 9 8 7 6 5 5 5
10 9 10 9 6 6 7 4 2 4 5 1 4 8 6 5 8 10 13 17 16 15 14 11 10 14 17 18 18 16 16 17 16 15 16 14 13 16 21 23 23 24 26 27 27 27 28 32 36 38 39 38 37 36 35 35 36 36 35 34 33 32 31 29 28 26 25 24 24 24 24 24 25 24 23 21 19 17 18 18 18 17 14 12 12 12 11 11 10 9 9 8 7 7 7 6 6
10 8 8 9 7 6 6 5 4 4 3 2 6 6 6 4 2 5 11 14 11 11 12 10 9 10 12 14 15 16 17 16 14 14 16 15 15 19 22 23 23 25 27 28 27 28 29 33 38 40 38 38 37 37 37 36 37 36 35 35 34 33 31 29 28 26 25 25 25 25 25 25 25 24 23 21 18 18 19 19 19 17 14 12 12 12 11 11 10 9 9 9 8 8 9 8 7
7 4 6 9 7 6 3 2 3 3 2 3 5 4 4 3 5 6 7 8 8 9 10 11 13 11 10 12 15 17 17 17 16 15 16 16 17 20 22 23 25 26 27 27 27 29 31 33 39 42 41 40 38 37 37 38 37 37 36 36 35 33 31 29 28 26 25 25 25 26 26 25 24 22 21 19 18 18 19 19 20 18 15 13 12 11 11 11 10 10 10 9 9 9 10 9 9
4 5 7 4 3 6 4 1 1 1 4 4 4 4 3 2 8 9 7 8 10 9 8 12 13 12 12 12 14 16 17 17 17 16 16 17 18 21 24 25 25 26 26 27 29 35 38 37 38 41 41 39 38 38 39 38 38 38 37 37 36 34 32 30 29 27 26 26 26 26 26 25 24 22 20 19 18 18 18 19 19 18 16 14 13 12 11 11 11 10 10 10 10 10 9 9 9
5 7 8 4 2 2 2 3 3 4 8 4 4 7 5 3 4 3 2 7 11 11 9 10 10 12 14 14 14 16 18 18 18 17 16 16 18 22 26 27 27 29 29 31 37 43 43 40 38 37 36 38 40 38 37 37 38 37 37 37 37 34 32 30 29 28 27 27 27 27 27 25 23 22 20 20 19 19 18 18 19 19 17 15 14 14 13 12 11 11 11 11 11 11 10 10 10
1 4 9 6 4 5 2 4 5 6 8 4 4 7 6 6 5 3 4 6 9 10 7 8 11 14 15 15 15 16 17 16 16 16 15 15 17 21 25 27 28 29 30 33 39 39 36 35 35 34 36 40 38 32 32 35 36 37 37 38 37 35 33 31 31 30 29 28 28 28 27 25 23 22 21 21 21 20 19 19 19 19 17 16 15 15 14 13 13 13 12 12 12 12 12 11 11
1 3 8 4 3 5 4 3 4 6 7 4 5 6 5 6 6 6 10 9 8 10 6 8 12 14 14 14 14 14 14 15 15 16 16 17 20 23 27 28 29 30 30 32 33 32 31 31 32 32 32 33 32 30 33 35 37 39 39 38 37 35 34 33 32 31 29 29 28 28 28 26 24 24 23 22 22 21 20 20 20 20 18 17 16 16 16 15 15 14 14 13 13 14 14 12 11
5 7 8 5 2 2 3 3 2 4 6 5 6 7 4 4 5 8 12 11 10 11 9 8 10 13 15 14 12 13 14 14 15 16 18 19 19 23 27 29 29 29 29 30 29 29 31 30 30 32 30 28 28 29 33 38 40 41 40 39 38 36 35 34 32 31 30 30 30 29 28 26 25 24 23 23 23 21 20 20 21 20 19 18 17 17 16 16 16 15 15 14 15 15 14 13 12
10 9 8 9 7 4 6 7 3 3 5 4 5 8 5 6 6 8 10 10 12 12 10 9 9 11 12 12 12 13 13 15 16 17 18 18 17 20 25 26 26 25 25 27 27 26 28 28 29 31 29 29 27 27 34 40 40 41 41 38 36 35 35 34 33 32 32 32 30 29 27 26 24 24 22 22 21 20 19 20 20 20 19 18 18 17 17 17 17 16 16 16 16 16 15 14 14
Wind_Direction
168 164 137 75 130 240 295 292 85 63 36 94 80 103 93 102 124 129 133 141 132 115 96 91 105 102 94 100 112 99 50 15 351 360 89 110 127 125 134 143 138 132 132 138 140 145 147 148 152 152 150 148 150 153 152 149 145 145 141 137 137 138 139 141 146 149 148 145 141 138 135 133 133 133 133 131 129 126 119 110 105 105 100 94 90 82 75 68 61 55 48 41 36 33 33 32 32
168 162 153 150 183 268 4 289 58 92 110 96 85 72 98 133 137 136 142 144 112 111 110 98 90 77 83 97 108 107 51 24 40 76 92 119 121 120 138 143 137 130 131 138 141 147 148 150 154 154 153 151 153 155 155 151 145 146 145 142 140 140 140 141 147 149 148 146 143 141 136 134 133 133 134 132 129 123 114 106 102 98 92 87 83 74 67 60 56 50 45 39 30 27 26 26 25
157 152 156 180 216 237 263 261 118 107 100 94 101 90 138 143 126 121 126 118 112 121 114 103 93 70 89 101 66 49 67 59 95 102 110 129 126 131 142 140 136 131 130 137 143 147 147 153 157 156 156 155 156 156 156 153 148 149 148 145 143 142 142 143 147 149 148 144 143 143 139 137 134 133 133 129 123 116 109 104 100 94 88 82 78 71 63 56 51 46 42 36 27 24 22 21 20
148 147 156 213 234 216 289 38 95 101 99 104 113 124 163 133 116 108 110 116 124 130 115 109 85 28 59 90 67 72 94 95 103 109 124 133 130 136 139 138 136 131 131 134 141 147 150 155 156 156 158 158 161 159 156 154 150 149 147 145 145 147 147 147 148 149 148 144 143 144 142 140 137 136 134 129 121 113 107 104 101 96 89 81 75 68 60 52 45 39 36 32 24 20 22 21 17
146 141 139 255 273 15 313 89 99 89 95 120 119 130 158 128 122 117 116 118 126 128 114 118 96 67 70 74 69 104 107 116 119 120 124 126 127 134 137 136 134 132 133 134 139 145 150 155 153 156 159 160 163 161 155 151 147 146 145 146 148 151 152 150 150 150 149 145 144 144 144 144 142 139 137 133 123 114 109 107 103 97 91 84 75 66 55 43 38 32 28 26 22 17 20 21 12
142 142 86 13 62 27 243 109 109 92 84 198 124 130 150 135 131 126 120 106 96 96 100 106 112 116 90 72 72 91 117 130 133 134 126 129 132 135 135 134 133 132 133 134 138 142 149 156 155 156 160 157 158 157 152 149 145 144 146 148 150 151 151 149 149 148 146 146 146 146 147 148 146 143 140 133 121 116 113 115 109 102 97 88 75 64 52 37 29 22 21 18 14 14 17 18 6
144 157 79 91 115 212 206 92 100 88 93 274 121 138 149 139 135 131 127 119 99 85 94 105 117 116 95 97 94 71 82 123 135 137 131 134 135 135 135 134 133 132 133 136 139 141 147 154 155 154 154 152 152 151 150 150 146 147 149 151 152 151 149 148 148 145 145 147 148 149 150 151 150 147 142 135 129 126 124 128 123 114 96 79 64 53 41 24 17 12 15 14 9 10 11 6 356
129 127 360 271 180 67 87 92 89 60 91 44 88 134 144 141 139 137 133 130 118 110 113 119 124 108 91 119 114 73 71 109 128 127 130 135 134 134 135 135 134 135 136 139 141 142 145 147 148 148 147 148 149 150 151 150 150 151 151 152 153 152 149 149 148 146 148 150 151 153 154 155 155 154 148 146 145 142 139 138 125 102 71 57 43 34 22 9 10 8 9 10 4 358 356 343 341
77 17 208 268 233 107 110 90 90 61 79 115 115 128 136 141 139 135 130 115 119 124 118 129 141 111 111 110 108 97 84 110 123 125 131 135 136 135 135 138 138 140 140 142 143 142 142 142 142 143 145 149 150 150 151 151 153 153 152 152 152 153 151 151 151 151 153 153 155 157 159 160 159 162 161 162 160 153 147 135 105 72 47 35 24 15 8 4 1 359 2 2 353 347 343 334 336
66 13 149 271 174 120 123 89 102 91 90 115 123 137 142 146 135 129 129 120 125 124 108 107 106 119 125 114 107 113 116 126 128 129 134 136 139 138 137 141 141 142 142 142 141 141 139 140 141 142 148 151 152 152 151 153 155 153 153 153 152 154 155 154 155 154 153 151 152 154 157 161 162 167 168 166 162 156 147 130 88 52 32 19 7 355 351 352 348 348 358 358 346 340 338 333 334
134 63 359 246 156 136 135 106 109 104 110 119 121 141 150 149 133 124 123 121 126 122 125 118 112 121 119 113 112 115 131 139 136 136 139 140 142 142 142 143 144 144 145 143 141 140 138 141 144 146 152 153 154 155 154 154 153 153 154 155 156 158 158 156 156 152 150 147 147 151 154 158 163 166 167 166 164 158 151 123 73 41 26 4 333 327 330 330 335 338 346 346 340 337 336 336 334
192 144 218 214 156 131 131 121 119 118 128 142 144 152 157 152 141 138 134 130 136 131 141 153 136 132 117 118 126 132 144 147 142 140 142 144 145 146 146 145 147 148 149 145 142 144 142 145 148 149 154 154 155 155 155 155 155 158 158 160 161 162 162 157 156 153 151 152 152 156 158 162 165 167 167 168 172 169 157 108 56 37 24 338 304 317 324 322 328 330 335 336 337 337 334 334 332
191 153 217 202 127 124 135 129 128 133 151 165 159 154 152 160 157 149 139 133 143 140 141 150 148 137 112 120 131 145 154 153 147 143 145 147 148 148 148 148 150 152 151 147 145 147 147 147 148 149 152 153 155 156 156 157 158 160 160 161 162 164 164 160 160 158 159 161 162 164 166 170 170 173 172 173 184 187 180 89 41 41 16 305 303 323 321 323 329 330 332 334 339 338 333 332 332
180 171 237 107 106 147 138 127 147 161 167 165 153 147 154 162 160 152 140 136 139 129 124 133 146 130 116 133 147 164 162 157 151 146 148 149 150 150 150 152 153 155 152 149 149 148 149 148 149 150 151 153 155 157 157 157 158 159 160 162 163 165 165 164 165 166 169 169 171 173 174 174 175 181 180 187 194 213 233 306 21 45 350 298 310 322 321 330 334 336 336 338 345 343 342 343 347
182 174 220 128 140 155 162 153 164 178 165 165 157 150 156 142 156 163 152 139 123 123 124 131 160 130 148 165 166 170 162 158 154 147 150 150 152 153 153 155 156 158 155 153 153 152 154 152 154 156 156 157 158 160 160 159 160 162 164 166 167 169 169 171 172 174 178 180 185 187 185 180 185 198 202 219 231 247 251 268 314 28 333 301 310 315 320 331 336 343 345 347 352 352 355 357 0
200 203 193 153 158 170 191 171 161 177 167 165 156 150 146 133 161 171 165 118 120 143 142 150 185 323 176 171 148 158 157 155 153 148 150 151 153 155 157 159 160 163 161 159 158 158 160 158 159 161 161 160 160 163 161 161 166 168 170 171 172 175 176 179 181 184 188 192 196 201 200 191 199 214 221 241 248 250 254 277 316 16 333 301 308 316 323 333 340 349 354 351 351 358 5 6 5
193 225 227 171 183 189 182 171 169 168 160 160 158 161 151 142 164 135 102 120 132 151 153 144 167 324 164 139 130 148 152 153 153 150 151 154 156 158 162 163 165 167 167 166 166 166 164 163 164 164 165 164 164 165 163 164 170 173 172 173 176 178 181 183 186 189 194 197 200 206 206 203 211 222 233 242 246 256 271 296 322 3 333 305 310 325 336 341 345 348 352 351 348 355 2 6 5
183 202 228 210 195 193 184 182 173 147 159 165 165 170 161 153 160 136 130 130 136 148 138 127 96 93 128 122 131 144 150 153 156 156 157 161 164 165 166 167 171 172 173 173 173 173 169 168 170 170 171 170 170 169 167 169 172 175 174 175 177 181 184 186 189 192 195 198 199 203 208 217 224 232 242 245 254 270 283 297 312 333 330 318 319 333 343 339 339 339 342 347 348 350 354 4 7
194 182 213 235 201 185 186 184 171 157 164 163 165 170 166 156 154 157 156 146 151 151 138 136 116 113 122 128 139 148 154 157 161 163 164 167 170 171 170 171 175 175 177 178 177 177 175 174 175 175 176 176 175 175 174 174 175 177 179 180 180 185 189 190 195 198 199 200 203 207 215 226 234 243 247 252 267 279 287 295 307 318 325 327 324 333 337 327 329 332 334 340 345 346 353 5 7
208 210 229 244 199 178 178 183 182 172 159 157 163 168 166 156 153 172 165 156 170 168 156 162 153 142 141 142 148 154 160 163 166 169 170 171 174 175 174 175 177 179 181 181 180 181 181 180 180 179 181 182 182 182 181 181 182 184 185 188 187 191 196 195 200 203 205 208 210 218 225 232 240 247 251 261 275 283 289 296 308 319 327 330 325 326 323 323 330 332 329 332 339 347 359 7 6
180 199 233 241 179 184 183 182 181 167 159 158 159 161 163 158 158 171 156 157 189 193 180 176 166 156 151 152 155 161 165 169 171 174 175 176 178 179 180 181 181 182 183 184 185 186 185 185 185 185 186 187 188 187 187 189 190 190 191 194 196 199 203 202 205 209 213 217 220 227 233 240 245 250 256 265 274 281 287 295 307 319 328 329 328 324 322 331 337 334 329 329 334 347 9 13 10
178 213 240 241 173 195 183 174 167 155 156 154 158 165 160 156 167 173 165 169 195 199 193 179 163 157 155 157 159 164 170 173 176 179 179 180 182 183 184 184 185 185 185 188 189 190 189 188 189 189 190 191 193 194 194 195 196 197 197 199 201 203 208 211 215 218 221 226 229 235 241 247 252 255 261 264 269 277 284 293 304 317 324 326 328 326 326 336 343 341 336 332 331 333 351 357 0
225 225 246 237 196 205 172 164 159 149 155 163 168 162 146 157 175 179 180 190 276 190 178 165 158 157 155 156 161 168 174 177 181 183 184 184 186 187 186 185 186 187 189 192 191 191 192 193 194 192 194 197 199 201 201 201 202 203 203 202 206 209 212 216 221 224 228 232 235 240 244 250 256 260 264 265 268 274 282 289 300 312 319 323 323 321 320 329 341 344 341 333 324 319 326 335 343
225 232 254 235 206 207 170 162 161 156 165 169 160 149 156 173 172 175 189 207 331 155 153 149 150 155 155 158 167 173 176 181 184 185 186 186 188 189 187 185 185 186 189 192 192 193 194 195 197 197 200 203 204 206 207 209 209 210 210 209 211 213 216 221 225 228 232 235 238 241 245 252 257 262 265 267 270 274 279 285 295 306 314 319 317 315 313 317 330 337 335 330 319 314 322 332 337
215 229 244 215 199 199 171 162 164 162 163 153 151 162 172 175 151 170 193 191 122 145 141 143 148 155 161 165 170 174 178 184 185 186 187 189 190 191 191 190 187 188 190 191 193 195 198 198 199 201 204 206 207 208 210 212 213 214 214 214 216 218 220 224 227 230 234 236 239 241 244 252 258 263 267 272 276 277 280 284 292 302 310 313 314 312 309 310 320 326 326 324 317 312 319 328 333
204 218 232 221 205 180 167 162 164 159 148 150 159 169 165 149 135 170 192 157 135 142 140 147 153 160 168 172 174 175 178 183 185 187 189 191 193 194 195 194 193 196 195 193 195 197 198 199 201 203 205 206 208 209 211 214 215 218 218 218 220 222 225 228 230 233 236 237 240 244 248 254 261 267 272 277 280 281 283 285 290 298 305 308 311 312 309 309 311 317 321 319 315 312 316 324 330
175 194 253 249 199 163 166 160 160 154 151 165 163 158 150 145 164 191 183 154 146 145 147 152 159 167 171 175 177 178 182 185 186 186 190 194 196 197 195 196 199 199 199 198 198 200 200 201 204 206 207 207 208 210 214 216 217 221 224 225 226 228 230 233 235 237 238 239 241 245 251 257 264 270 275 279 282 284 284 285 287 291 298 303 308 312 311 308 304 309 313 309 307 307 314 322 328
152 161 79 83 137 140 162 156 158 150 149 167 145 128 137 158 210 211 162 157 155 151 155 160 165 171 172 176 178 181 188 187 186 188 193 197 197 196 195 197 198 199 201 201 201 202 203 205 208 210 210 209 211 213 216 219 221 225 228 231 234 235 235 238 241 242 243 244 245 248 252 257 265 272 277 281 282 284 284 283 284 285 291 297 301 308 309 302 299 302 303 301 300 304 312 318 328
169 165 103 110 119 129 155 156 164 156 150 153 126 117 171 193 210 167 147 158 159 157 160 165 169 172 173 177 179 184 191 188 189 195 198 198 197 196 197 198 197 199 203 203 203 204 205 207 209 212 214 214 216 217 220 224 225 226 228 232 236 238 240 243 246 247 247 249 252 253 256 261 268 275 279 280 280 281 281 280 281 284 294 302 299 299 301 294 294 296 294 297 299 303 307 314 334
160 158 134 132 125 148 156 160 169 155 147 156 149 177 213 203 199 143 152 162 158 163 167 171 173 174 177 179 182 188 192 192 195 201 200 198 198 197 198 198 198 200 202 202 203 206 206 206 210 214 218 219 220 222 224 226 227 229 230 235 239 241 244 247 250 251 252 254 257 259 263 268 273 277 278 279 277 274 277 277 279 285 293 304 298 290 291 288 287 288 289 296 295 294 296 316 340
147 135 140 150 163 164 151 168 172 152 151 169 176 223 221 195 186 159 164 166 164 172 173 176 177 177 180 181 186 189 192 197 202 204 201 200 200 198 199 198 199 201 201 202 204 207 209 212 217 219 222 223 223 225 226 228 230 232 236 239 241 243 245 248 250 253 255 256 259 263 267 272 276 278 278 277 272 269 271 270 281 289 287 290 288 282 283 281 276 275 280 288 285 287 293 310 326
156 154 160 189 192 154 148 182 183 164 162 182 191 224 241 196 179 167 171 173 173 177 176 180 181 181 184 185 190 191 190 197 204 206 205 204 202 201 201 198 199 202 203 204 205 209 213 219 223 224 226 227 226 227 228 230 232 235 238 241 243 245 247 250 251 253 257 259 261 266 270 275 278 278 276 273 271 269 266 269 283 289 278 273 274 271 271 267 259 255 257 272 283 298 298 300 308
188 222 173 188 187 156 157 181 197 172 154 183 205 224 260 196 175 168 173 180 179 181 180 183 184 184 187 188 193 194 191 195 203 207 206 205 204 203 202 200 202 203 205 207 208 212 216 221 225 226 227 229 229 229 229 231 233 236 238 241 245 247 247 250 254 256 260 262 264 267 272 278 280 279 276 272 272 269 266 275 282 278 267 268 266 262 263 254 243 242 246 259 271 282 288 297 303
186 219 173 196 185 165 159 166 195 179 162 184 207 228 245 150 165 172 175 182 183 185 184 185 188 187 188 191 194 197 197 199 203 206 204 204 205 204 203 203 204 205 206 209 213 216 218 221 224 225 227 229 231 231 231 232 234 236 239 242 245 245 245 250 256 261 264 266 267 268 272 277 278 277 274 270 271 271 274 280 277 264 259 261 261 263 264 256 247 248 254 258 261 270 283 296 301
183 187 181 201 190 179 174 166 178 180 182 190 193 220 233 182 160 180 180 183 188 191 188 187 189 189 190 192 196 199 202 206 207 205 203 204 205 206 207 206 207 207 207 209 214 218 220 221 223 226 227 229 231 232 232 232 234 236 238 240 241 242 246 249 255 260 262 264 266 267 270 273 273 273 273 271 273 276 279 277 264 250 248 248 257 267 270 273 268 261 264 267 267 272 281 291 296
186 189 191 187 185 189 176 146 160 175 189 200 195 214 224 194 170 186 185 186 192 195 192 192 193 193 192 193 198 201 205 211 208 204 204 204 205 206 207 208 208 208 208 209 213 217 219 220 222 224 227 228 229 230 230 229 230 233 234 237 239 240 244 248 254 257 258 260 261 263 266 268 270 273 276 276 273 273 271 260 240 233 235 234 252 274 281 284 276 266 266 268 274 282 285 288 294
182 183 204 198 190 184 159 125 148 172 191 211 209 227 233 208 182 190 188 188 196 200 198 198 196 195 195 197 200 202 208 211 204 203 205 206 207 206 206 208 208 209 211 211 212 215 218 220 220 222 225 226 227 227 227 225 225 227 230 234 238 240 243 246 252 255 255 256 258 260 262 264 268 275 280 274 266 262 248 227 217 220 228 233 258 283 283 279 276 272 268 268 281 296 305 303 306
184 183 199 208 203 177 154 143 150 168 195 212 213 253 250 239 199 192 190 195 202 203 202 202 199 197 198 199 202 205 209 207 199 202 205 207 209 207 207 207 206 207 210 212 212 214 218 220 221 223 225 225 226 226 227 227 228 229 230 234 238 240 244 246 249 253 255 256 258 258 257 259 266 274 278 269 259 244 219 210 209 213 227 243 268 283 280 278 277 275 277 280 291 306 309 305 313
188 188 193 204 193 131 126 148 146 161 200 208 183 237 248 251 222 205 199 205 210 207 206 207 202 200 201 201 204 207 206 202 201 203 205 208 210 208 207 207 208 208 209 211 213 215 219 220 222 224 225 225 226 227 228 229 232 233 234 238 241 243 246 248 249 253 256 258 259 258 255 254 259 264 263 252 238 214 204 207 208 211 234 253 271 278 279 280 275 274 280 284 300 307 296 290 313
188 179 194 197 168 167 179 163 150 155 188 183 163 227 251 229 225 219 212 215 219 214 212 213 210 207 206 205 204 205 205 203 203 206 206 206 207 207 207 206 207 207 206 208 210 213 217 220 223 224 225 225 225 226 228 230 234 235 236 238 241 244 247 250 251 253 256 256 256 255 253 251 252 253 244 226 212 203 202 206 209 220 243 258 268 275 280 278 271 271 277 286 300 297 284 273 276
193 187 201 185 165 193 197 136 137 142 132 130 149 236 255 210 216 224 213 216 222 219 214 217 217 217 215 212 211 208 207 204 202 206 205 202 204 205 206 206 205 206 207 208 208 212 217 221 224 225 225 225 224 225 227 228 229 230 229 232 236 239 242 246 248 247 248 248 246 246 246 245 245 243 230 215 206 203 205 210 220 232 243 257 266 273 278 275 265 260 268 280 281 269 270 272 259
202 208 208 183 174 189 162 133 144 165 207 192 173 242 258 195 212 222 200 205 219 218 217 220 218 217 218 217 217 214 213 210 204 205 204 201 201 203 205 204 203 207 209 210 211 214 219 222 225 226 225 224 224 225 225 225 224 221 216 217 220 225 229 232 232 233 238 241 239 240 242 241 238 233 221 213 209 207 211 218 226 233 246 261 267 270 272 269 260 256 266 273 264 253 250 255 255
200 201 191 178 171 169 155 160 176 200 221 189 181 222 254 195 213 215 195 203 215 215 220 223 218 215 216 216 217 215 214 214 210 209 207 203 201 201 203 202 203 209 210 210 211 215 220 222 224 226 225 224 224 224 223 223 221 217 214 215 216 218 221 223 228 234 240 242 241 241 241 235 228 223 216 213 211 210 216 220 224 234 249 257 260 264 266 268 265 267 275 267 254 248 235 247 264
185 158 166 166 161 164 164 173 192 204 172 157 183 212 257 250 232 193 190 207 216 218 223 224 220 217 215 215 216 214 212 211 209 209 208 206 203 201 202 201 204 209 208 206 208 213 218 221 223 225 225 224 225 225 223 222 219 214 214 216 218 221 222 227 235 239 241 240 240 238 235 227 218 215 212 212 212 213 215 215 220 232 239 244 252 257 262 267 267 270 272 262 258 266 264 265 262
182 143 162 164 164 171 172 181 196 189 165 190 192 190 236 249 246 141 184 207 220 223 223 223 220 217 215 214 215 214 212 210 208 208 207 207 206 204 203 202 204 207 204 205 209 214 217 220 221 223 223 224 225 225 224 223 222 220 220 219 219 224 226 230 236 238 237 234 232 229 224 220 214 209 210 212 213 212 212 213 219 225 227 234 244 249 256 260 259 259 258 257 264 270 267 265 246
132 130 133 114 134 163 173 191 181 150 200 219 193 182 210 245 209 145 180 210 224 226 223 221 219 215 215 214 214 214 212 209 210 211 210 208 207 207 206 205 206 204 203 207 211 213 216 218 219 221 222 223 224 225 224 223 223 222 222 221 221 224 226 228 230 232 233 229 223 218 213 212 208 206 208 210 208 209 211 213 215 219 222 231 240 242 244 247 245 243 246 251 254 252 244 240 233
126 129 120 89 79 111 121 163 137 154 213 227 198 189 207 250 212 166 184 209 215 219 222 220 216 214 215 214 213 212 209 207 208 211 212 210 208 205 203 204 205 202 201 206 208 210 213 216 217 219 222 223 223 224 223 222 221 221 222 222 222 223 225 226 225 225 226 223 218 215 214 213 210 207 206 203 202 205 210 211 211 216 222 231 237 236 232 229 224 222 227 229 224 221 223 225 229
144 140 137 126 103 118 109 82 174 200 218 226 205 192 205 241 234 180 201 216 212 213 219 215 209 210 212 213 213 210 207 205 205 209 211 210 205 199 199 202 202 199 199 201 204 207 210 214 217 218 220 222 222 222 222 220 220 221 222 223 223 224 225 225 224 224 225 222 219 218 216 214 209 203 200 198 198 202 207 208 209 214 220 227 229 226 220 213 207 205 204 205 205 207 215 222 230
181 161 154 166 160 165 177 177 195 215 227 239 174 185 203 241 255 232 220 232 228 222 226 220 209 207 208 210 210 206 205 205 203 205 207 206 198 193 198 201 198 196 197 200 202 202 206 212 215 216 218 221 220 220 220 219 220 221 222 223 224 225 227 228 228 228 228 226 222 219 215 209 202 197 195 195 197 202 206 205 207 211 216 221 221 216 210 204 200 200 199 202 206 209 214 219 228
196 177 173 188 178 179 191 175 180 219 228 231 143 180 208 246 257 245 232 240 239 228 232 233 218 212 208 209 208 205 206 207 204 203 203 202 195 193 198 199 196 196 198 199 199 200 203 209 213 215 218 220 220 219 219 219 220 222 223 224 225 226 227 229 230 232 232 230 226 221 215 208 201 197 196 197 200 203 205 204 205 207 210 214 214 210 207 205 203 204 206 210 213 215 216 219 227
199 184 187 202 186 191 197 178 197 200 191 148 142 178 209 195 235 237 228 249 257 239 233 224 217 218 208 206 207 207 210 209 204 202 202 200 195 195 198 197 196 197 199 199 198 199 202 207 212 215 217 218 219 218 218 219 220 222 224 225 226 226 227 229 231 233 235 233 228 222 216 210 205 202 202 204 203 203 204 203 203 205 207 209 209 209 209 209 210 210 213 218 219 220 221 226 234
196 168 199 211 184 179 193 190 200 170 152 175 168 208 230 220 307 289 242 263 269 243 227 210 211 208 193 197 203 206 209 208 205 203 204 200 195 197 200 199 198 197 198 198 197 198 202 206 211 214 216 218 218 218 218 219 220 221 223 224 225 225 226 227 229 232 234 233 230 223 217 213 209 208 209 208 204 202 204 204 203 205 207 207 207 209 210 211 211 212 216 222 226 230 231 234 238
163 181 205 206 157 171 178 175 84 132 222 200 171 228 249 259 285 274 247 258 257 243 222 211 209 194 186 196 200 203 205 204 203 202 199 196 193 198 201 200 198 197 197 197 198 203 206 207 209 213 215 216 217 219 219 219 219 221 222 223 223 223 223 225 227 230 232 231 227 222 217 214 212 212 212 209 205 205 207 206 205 206 208 210 210 210 210 212 213 216 223 230 234 235 235 236 242
159 200 182 109 50 197 183 202 170 192 229 212 165 217 224 199 244 268 247 247 250 246 224 208 201 189 196 204 198 199 201 199 200 198 195 195 195 199 201 199 199 197 195 198 204 208 209 209 209 209 211 214 216 217 217 218 218 218 220 220 221 221 222 224 226 229 230 228 223 218 215 213 213 213 212 210 208 208 210 209 208 209 210 213 216 216 216 218 219 224 232 239 244 245 244 248 255
232 205 162 143 201 192 169 213 193 198 226 222 182 212 225 212 213 248 255 246 252 252 218 187 197 198 204 210 202 198 197 196 200 200 197 198 202 202 199 198 199 198 197 200 205 206 206 208 209 208 211 215 214 213 213 215 215 216 219 220 220 220 220 223 226 226 224 222 218 216 214 213 213 212 209 208 208 210 213 212 211 212 215 218 221 222 224 226 227 232 239 246 251 252 253 258 262
312 174 169 186 221 185 181 198 187 204 223 224 206 209 213 210 202 215 238 249 255 255 231 193 204 206 206 209 203 194 192 195 199 199 199 201 204 203 198 196 198 199 199 202 203 201 202 205 206 207 210 210 208 208 210 214 216 218 220 220 219 219 219 223 225 223 220 217 215 214 212 212 211 209 206 205 208 211 213 214 214 215 219 223 225 225 229 233 235 238 243 248 252 253 255 260 261
189 196 188 185 176 166 197 195 169 210 218 212 223 228 203 185 196 207 223 238 240 245 246 221 211 211 210 208 198 187 188 195 197 197 201 202 202 202 199 198 199 199 200 201 200 200 203 203 204 206 205 203 201 203 209 215 218 219 219 217 217 216 217 221 222 219 217 215 213 211 209 208 208 206 204 204 206 210 213 215 217 220 224 226 227 229 235 239 240 243 247 251 253 255 257 261 263
197 201 194 188 183 167 197 211 184 196 221 201 221 245 218 168 190 205 213 231 234 237 243 238 229 219 212 206 199 191 188 194 197 198 201 200 197 197 196 195 197 198 199 200 199 202 203 203 205 205 203 203 199 198 210 216 217 218 218 214 212 212 215 218 218 215 215 214 212 209 207 205 204 205 205 205 207 210 214 215 219 224 227 227 228 233 240 243 243 246 251 254 254 255 259 263 267
Height
773 775 775 776 775 776 777 776 791 794 794 811 809 808 806 796 796 800 805 803 804 803 797 797 797 800 803 807 812 814 815 815 818 822 824 820 816 818 817 818 821 821 822 822 823 824 826 827 828 829 830 831 833 834 835 836 837 838 838 839 839 840 841 841 843 844 845 846 847 847 848 849 849 850 851 852 853 853 854 854 855 856 857 857 857 858 858 858 858 858 858 857 857 857 857 857 857
774 776 776 777 776 779 781 778 798 805 803 817 811 807 805 796 799 803 805 803 804 802 796 798 799 801 802 802 806 810 814 814 812 815 816 816 817 818 817 818 821 822 823 823 824 825 827 829 829 830 831 833 835 836 836 837 838 839 839 840 840 841 842 843 844 845 846 847 848 848 849 850 851 852 853 853 854 855 855 856 857 858 858 859 859 859 859 859 859 859 859 859 858 858 858 858 858
775 776 776 778 777 778 782 782 801 810 812 821 814 805 801 801 805 804 802 800 800 797 797 798 801 804 804 807 809 812 817 813 810 812 815 817 817 818 819 819 822 824 824 825 826 826 828 829 830 831 832 834 836 837 838 838 839 840 840 841 842 842 843 844 845 847 848 849 849 850 851 851 852 853 854 855 855 856 856 857 858 859 859 860 860 860 861 861 861 860 860 860 860 860 860 860 860
774 776 776 777 779 781 786 793 802 808 815 819 814 805 800 804 805 803 801 799 798 796 798 801 805 805 804 813 813 813 818 815 812 812 815 817 817 819 820 820 822 824 826 827 828 829 829 829 830 831 833 835 837 838 839 840 840 841 841 842 843 844 844 845 847 848 849 850 851 851 852 853 854 854 855 856 856 857 858 859 860 860 860 861 861 862 862 862 862 862 861 861 861 860 860 860 860
774 776 776 776 784 788 791 799 802 805 812 811 810 806 801 802 802 803 801 798 797 797 800 802 810 807 805 813 812 815 818 815 813 812 814 817 818 820 820 821 823 825 827 828 829 831 831 831 832 834 835 836 837 838 839 840 841 841 842 843 844 845 846 847 848 849 850 851 852 853 853 854 855 856 856 856 857 858 859 860 861 861 861 862 862 863 863 863 863 863 862 862 861 861 860 860 859
774 776 775 774 782 786 793 802 804 805 804 801 803 804 801 799 799 801 800 799 797 797 799 801 807 809 811 813 810 814 815 815 815 813 815 818 820 821 822 823 824 825 827 829 830 832 833 834 834 836 837 837 838 839 839 840 841 842 843 844 845 846 847 848 849 850 851 852 853 854 854 855 856 856 857 857 858 859 860 861 861 862 862 863 864 864 864 864 863 863 863 862 862 861 861 860 859
774 777 777 780 785 786 798 805 804 806 800 796 798 799 800 799 798 799 800 801 801 799 800 802 802 807 816 814 812 814 813 814 814 815 816 818 821 822 823 824 825 826 827 829 831 832 833 834 835 836 837 837 839 839 840 840 841 842 844 845 846 847 848 849 850 851 852 853 853 854 855 856 857 857 857 858 859 860 861 862 862 862 863 864 864 865 865 864 864 863 863 862 862 861 861 860 860
773 778 780 788 795 794 801 805 803 805 799 794 794 796 798 798 797 798 801 802 804 804 803 803 800 809 818 813 816 817 813 815 814 817 818 819 822 823 825 826 826 827 828 829 830 832 834 835 836 837 837 838 839 840 841 841 842 843 845 846 847 848 849 850 851 852 852 853 854 855 856 856 857 857 858 859 860 861 862 862 863 864 864 865 865 865 865 864 864 863 863 863 862 861 861 860 859
773 778 784 791 799 799 803 806 805 803 799 795 795 796 796 796 796 798 802 803 803 804 805 804 801 811 819 815 819 816 814 817 816 818 819 821 823 824 827 827 828 828 829 829 830 833 834 836 836 838 838 839 840 841 842 843 844 845 846 847 848 849 850 851 852 852 853 854 855 855 856 857 857 858 859 860 861 862 863 863 864 865 866 866 866 865 865 864 863 863 863 863 862 861 861 860 859
775 780 788 795 798 803 807 808 806 803 800 797 796 796 796 796 796 798 801 804 803 804 806 802 803 811 817 819 820 816 816 818 817 820 821 823 824 826 828 829 830 830 830 830 831 833 835 836 837 838 840 840 842 842 843 844 845 846 847 848 849 850 851 852 852 853 854 854 855 856 857 857 858 859 860 861 862 863 864 864 865 866 867 867 865 865 864 863 863 862 863 863 862 861 861 860 859
782 784 788 797 801 806 808 808 807 804 800 797 798 796 794 794 797 801 801 805 803 805 806 803 809 812 815 820 820 817 817 818 819 821 822 824 825 827 828 830 832 832 833 832 833 834 835 837 838 839 840 841 842 843 844 845 846 847 848 849 850 851 852 852 853 854 854 855 856 856 857 858 859 860 861 862 863 863 864 865 866 867 868 866 864 864 863 863 863 862 862 862 862 861 861 860 859
787 790 790 800 803 804 804 807 808 804 802 800 802 797 793 794 798 802 803 806 805 806 805 803 808 808 816 823 819 817 817 819 820 822 824 825 826 828 829 831 832 833 834 834 835 836 836 838 839 840 841 842 843 844 845 846 848 848 850 850 851 852 852 853 853 854 854 855 856 856 858 858 859 860 861 862 863 864 865 866 867 868 868 865 862 863 863 862 863 862 862 862 861 861 860 859 858
786 791 793 801 801 802 803 806 807 807 807 802 800 796 792 797 800 801 802 805 805 808 805 801 802 804 817 823 818 817 817 819 821 822 824 826 827 829 830 831 833 834 835 836 836 837 838 839 840 841 842 843 844 845 847 848 849 849 850 851 852 852 852 853 853 854 854 855 856 857 858 858 859 860 861 862 863 864 865 866 867 869 868 863 861 863 863 862 863 862 862 861 861 860 859 858 857
781 785 789 801 802 801 803 806 808 809 808 799 796 794 794 798 799 797 799 806 807 806 802 798 799 806 817 821 821 819 816 819 821 823 825 826 828 829 831 832 833 834 835 837 838 839 839 840 841 842 843 844 845 846 848 849 850 850 851 851 852 852 853 853 854 854 855 855 856 857 858 859 860 860 861 862 863 864 865 866 867 869 867 863 863 863 862 862 863 862 861 861 860 859 858 858 857
776 780 786 799 803 802 803 804 805 807 804 796 794 793 796 797 795 798 798 803 806 800 799 800 799 807 814 816 820 815 814 819 820 823 825 827 829 830 831 832 834 835 836 838 838 840 840 841 842 843 844 845 846 847 848 849 850 850 851 851 852 852 853 853 854 854 855 856 856 857 858 859 860 861 862 862 863 864 865 866 867 869 867 863 864 863 862 863 863 862 861 860 860 859 858 857 857
772 777 787 798 803 804 802 801 803 806 801 793 792 791 800 800 794 800 796 795 803 798 799 803 801 804 808 809 811 810 813 818 820 823 825 827 829 830 832 833 835 835 837 838 839 840 841 842 842 844 844 845 847 847 848 849 850 850 851 852 852 853 853 853 854 855 855 856 857 858 859 859 861 861 862 863 863 864 865 866 868 869 867 864 865 864 863 863 863 862 861 860 860 859 858 858 857
771 779 792 799 802 802 798 799 801 800 795 792 792 791 801 804 796 797 793 792 800 802 801 802 801 800 803 805 807 809 815 818 820 823 824 827 829 830 832 833 835 836 837 838 839 840 841 842 843 844 845 846 847 847 849 849 850 850 851 852 852 853 853 854 854 855 856 857 858 858 859 860 861 861 862 863 863 864 864 865 867 869 869 865 864 864 863 863 862 861 861 860 860 859 859 858 857
777 787 795 798 798 795 789 790 789 786 790 792 791 791 797 803 801 796 796 800 802 804 804 802 802 800 801 805 808 812 815 818 820 822 824 826 828 829 831 833 835 835 837 838 839 840 841 842 843 844 845 846 847 848 849 849 850 850 851 852 852 853 853 854 855 856 856 857 858 858 859 860 861 862 862 862 863 863 863 864 866 868 869 866 864 863 863 862 862 861 861 860 860 859 858 858 857
779 787 794 793 788 783 777 779 780 780 785 788 790 790 793 798 799 796 801 808 805 807 808 805 807 805 804 806 809 813 815 817 819 820 822 824 826 828 830 832 834 835 836 837 838 839 840 841 843 844 845 846 847 848 848 849 850 850 851 852 852 853 854 855 855 856 857 857 858 858 859 860 861 861 861 862 862 862 862 862 864 866 867 867 865 863 863 862 862 861 860 860 859 859 858 857 857
776 781 792 786 775 775 772 773 776 775 778 785 790 789 792 794 794 796 802 808 806 807 807 806 810 809 807 807 809 813 815 817 819 820 822 823 825 827 828 830 832 834 835 836 838 839 840 841 842 843 845 846 847 847 848 849 850 851 851 852 853 854 854 855 856 856 857 857 858 858 859 859 860 860 861 861 861 861 861 861 862 863 865 866 865 864 863 862 861 861 860 860 860 859 858 858 857
774 777 784 775 768 774 771 768 771 772 774 782 788 790 794 792 791 796 800 809 810 803 798 798 802 804 805 806 808 811 814 816 818 820 821 823 825 826 828 830 831 833 835 836 837 838 839 840 842 843 844 845 846 847 848 849 850 851 852 852 853 854 854 855 856 856 857 857 858 858 858 859 859 860 860 860 860 860 860 861 861 861 862 863 863 863 862 862 861 860 860 859 859 859 859 858 858
773 773 770 766 768 772 767 764 768 771 774 781 787 790 791 790 791 795 797 805 804 794 791 792 794 798 801 803 806 810 812 815 817 819 820 822 824 825 828 830 831 833 834 836 837 838 839 840 841 843 844 845 846 847 848 849 850 851 852 852 853 853 854 855 855 856 856 857 857 858 858 858 859 859 859 859 860 860 860 860 860 860 861 861 861 861 861 860 860 860 859 859 859 859 859 859 858
774 772 764 764 766 768 765 764 767 769 775 782 785 784 785 791 795 793 793 796 791 784 786 789 793 795 797 801 805 808 810 812 814 816 818 820 822 824 826 828 830 832 833 835 836 838 839 840 841 842 844 844 846 847 848 849 850 851 851 852 853 853 854 854 855 856 856 857 857 858 858 858 858 858 858 859 859 859 860 860 860 860 860 860 860 860 860 859 860 859 859 859 859 859 859 859 858
772 773 765 764 763 765 764 763 765 766 773 776 777 780 785 791 793 792 792 790 786 783 784 788 793 796 798 801 804 806 808 810 812 815 817 819 821 823 825 827 829 830 832 834 835 837 838 840 841 842 843 844 845 846 848 848 849 850 851 852 852 853 854 854 855 855 856 856 856 857 857 857 857 858 858 858 858 858 859 859 859 859 859 859 859 859 859 859 859 859 858 858 858 858 858 858 857
771 770 765 763 763 763 761 762 765 766 770 772 776 782 785 785 786 791 791 788 786 784 785 789 794 797 800 802 804 806 808 810 812 814 817 819 822 824 826 827 828 829 831 833 835 836 838 839 840 842 843 844 845 846 847 848 849 850 850 851 852 852 853 853 854 854 855 855 855 856 856 856 857 857 857 857 858 858 858 858 859 859 859 859 859 859 859 859 859 858 858 858 857 857 857 857 856
765 764 763 763 764 761 761 764 765 767 770 772 780 786 785 783 785 792 790 787 787 785 788 791 794 799 801 802 803 805 807 809 812 814 817 820 822 824 824 826 827 828 830 832 833 835 836 837 839 840 841 843 844 845 846 847 848 849 850 850 851 852 852 852 853 853 854 854 854 855 855 856 856 856 857 857 857 857 857 858 858 858 858 858 858 858 858 858 858 857 857 857 856 856 856 856 856
758 761 763 762 763 761 761 765 766 768 771 772 781 790 788 783 789 796 790 785 787 788 792 793 795 800 800 802 803 805 807 808 811 814 817 819 820 822 823 825 826 827 829 830 832 833 834 836 837 838 840 841 842 844 845 846 847 847 849 849 850 851 851 852 852 852 853 853 854 854 855 855 855 856 856 856 856 857 857 857 857 857 857 857 857 857 857 857 857 856 856 855 855 855 855 855 855
756 760 766 766 764 764 764 767 768 769 776 774 777 789 791 789 792 792 786 785 787 790 795 794 797 799 800 802 803 805 806 808 811 813 814 816 817 819 821 822 824 826 827 829 830 832 833 834 836 837 838 840 841 842 844 845 846 846 848 848 849 849 850 851 851 851 852 852 853 853 854 854 855 855 855 855 855 856 856 856 856 856 856 856 856 856 856 856 856 855 855 854 854 854 854 854 854
757 757 769 774 768 772 770 769 769 769 778 774 777 797 800 795 794 787 783 786 787 791 796 796 798 799 800 802 803 805 806 808 810 810 811 813 815 817 819 821 822 824 826 827 829 830 832 833 835 836 837 838 839 841 842 843 845 845 846 847 848 848 849 850 850 850 851 851 852 852 853 853 854 854 854 854 854 854 854 854 855 855 855 855 855 855 855 855 855 855 854 854 854 853 854 853 853
761 760 768 776 780 783 774 771 771 772 778 769 777 804 803 792 790 785 783 785 789 795 796 797 798 799 800 801 803 804 805 807 807 808 810 811 814 815 817 819 821 823 825 826 828 829 831 832 833 834 835 837 838 839 841 842 843 844 845 845 846 847 848 848 848 849 849 850 850 851 851 852 852 853 853 853 853 853 853 853 854 853 854 855 855 854 854 854 854 854 854 854 853 853 853 853 852
765 768 769 776 786 788 776 772 774 779 781 768 778 802 794 785 786 784 783 783 788 795 795 796 797 797 799 800 801 803 803 805 806 807 809 810 812 814 816 818 819 821 823 824 826 827 829 830 831 833 833 835 837 838 839 840 841 842 844 844 845 846 846 847 847 848 848 848 849 849 850 851 851 851 851 851 852 852 852 852 852 852 853 853 854 853 853 853 853 853 853 853 853 852 852 852 852
767 776 783 781 782 787 779 774 773 779 782 772 783 799 789 782 783 781 782 783 787 792 794 795 796 797 798 799 800 801 802 803 805 806 807 809 811 812 814 816 817 819 820 822 824 826 827 828 830 831 832 834 835 836 838 839 840 841 842 843 844 844 845 845 846 846 847 847 848 848 848 849 849 849 850 850 850 851 851 851 851 852 852 852 853 853 853 853 852 853 853 853 852 852 852 852 852
773 776 787 785 782 788 786 778 771 773 781 779 784 793 789 783 779 779 781 783 786 791 793 794 795 796 796 798 799 800 801 802 803 804 805 807 809 811 812 814 816 817 819 820 822 824 825 826 828 829 831 832 833 835 836 837 839 840 841 842 842 843 843 844 844 845 845 846 846 846 847 847 848 848 848 848 849 849 850 850 851 851 851 851 852 852 852 852 852 852 852 852 852 852 852 851 851
781 778 783 783 781 786 787 784 775 771 780 784 785 788 786 783 780 780 780 781 786 789 792 793 793 795 795 796 798 799 800 801 800 800 803 805 807 809 811 812 814 815 817 819 820 822 823 825 826 827 829 830 832 833 835 836 837 838 839 840 841 841 842 842 843 843 844 844 844 845 845 846 846 846 847 847 848 848 849 849 850 850 850 851 851 852 852 852 852 852 851 851 851 851 851 851 851
780 781 782 784 782 782 783 783 775 773 781 784 788 790 783 782 782 782 781 781 785 787 788 790 791 793 794 795 797 797 798 798 797 798 801 803 805 807 809 811 813 814 816 817 818 820 821 823 824 826 827 829 831 832 834 835 836 837 838 839 839 840 840 841 841 842 842 843 843 844 844 845 845 845 846 847 847 848 848 849 849 849 850 850 851 851 851 851 851 851 850 850 850 850 850 850 850
769 772 773 779 781 780 777 775 769 771 783 784 786 788 782 783 785 784 782 781 785 787 786 789 790 790 792 793 794 795 796 795 794 796 799 801 803 805 807 809 811 812 814 815 817 818 819 821 822 824 825 827 829 830 832 833 834 835 836 837 838 838 839 839 840 841 841 842 842 843 843 844 844 844 845 846 846 847 847 848 849 849 849 850 850 850 850 850 850 850 850 850 850 850 850 849 849
760 768 772 772 775 779 774 773 769 768 783 788 782 785 783 783 785 783 783 784 785 787 787 788 788 789 790 791 792 792 792 791 792 795 797 799 801 803 805 807 809 810 812 813 814 816 817 819 820 822 823 825 827 828 829 830 832 833 834 835 836 837 838 838 839 839 840 841 841 842 842 842 843 843 845 845 845 846 847 847 848 848 849 849 849 850 850 849 849 849 849 849 850 849 849 849 849
759 766 773 773 774 777 772 772 770 767 782 789 784 788 788 784 786 783 783 786 785 783 785 786 786 787 788 788 790 789 789 789 790 793 795 797 799 801 803 804 806 808 808 810 812 813 815 817 818 819 821 823 824 826 827 828 829 831 832 833 834 835 836 837 838 838 839 840 840 841 841 841 842 843 843 844 844 845 846 847 847 848 848 848 849 849 849 848 849 849 849 849 849 849 849 849 849
761 764 771 776 775 776 776 772 769 769 780 787 786 791 789 784 784 782 782 783 780 777 779 782 783 785 786 785 787 786 787 789 789 790 791 794 796 798 801 802 803 805 806 808 809 811 813 814 816 817 819 820 822 823 825 826 828 829 831 832 833 834 834 835 836 836 837 838 838 839 840 840 841 842 843 843 843 844 845 846 847 847 847 847 848 848 848 848 848 848 849 849 849 849 849 849 849
761 764 771 775 772 777 782 778 773 771 777 782 786 790 787 784 785 782 779 778 777 776 776 778 779 781 781 780 781 783 785 787 787 787 787 790 793 795 797 798 800 802 804 805 807 809 810 811 813 814 816 818 820 821 823 825 826 828 830 831 832 833 833 834 835 835 836 836 837 838 838 839 840 841 842 842 843 844 844 845 846 846 847 847 847 847 847 847 848 848 848 848 849 849 849 849 849
762 760 764 769 770 770 772 775 775 776 780 779 784 795 790 783 786 783 777 776 777 776 776 777 776 775 777 777 777 778 779 781 783 784 784 786 788 791 793 795 797 799 801 802 803 805 807 808 810 812 814 816 817 819 821 823 825 827 828 829 831 831 832 833 833 834 834 835 836 836 837 838 839 840 841 842 842 843 844 844 845 845 846 846 846 847 847 847 847 848 848 848 849 849 849 849 849
764 759 755 758 763 765 767 773 777 786 793 780 783 807 799 780 783 780 775 778 778 776 776 776 775 774 775 776 776 775 775 775 777 778 779 781 784 787 789 792 794 796 797 798 800 802 804 805 807 810 812 813 815 817 819 821 822 824 826 827 829 829 830 831 831 832 832 833 834 835 836 837 838 839 840 841 841 842 843 844 844 845 845 845 846 846 847 847 847 847 848 848 848 849 849 849 849
765 755 749 753 756 762 768 772 777 789 793 775 774 800 800 783 779 775 773 778 777 775 775 772 772 772 771 772 772 771 772 772 773 774 775 777 780 783 785 787 790 791 793 795 798 800 801 803 805 807 809 810 812 814 816 818 820 822 823 824 826 827 828 828 829 830 831 832 833 834 835 836 837 838 839 840 840 841 842 843 844 844 845 845 845 846 846 847 847 847 848 848 848 849 849 849 849
759 747 745 754 756 761 767 769 775 779 780 778 774 783 796 789 776 770 772 777 779 776 773 769 766 766 766 766 766 766 767 767 769 771 772 773 775 777 779 782 784 786 789 792 795 797 798 800 802 804 806 807 809 812 813 815 817 819 820 822 823 824 825 826 827 829 830 831 832 833 834 835 836 837 838 839 840 841 841 842 843 843 844 845 845 846 846 846 847 847 848 848 849 849 849 849 849
751 743 744 750 752 757 760 764 771 772 780 794 786 782 801 796 774 771 774 777 780 774 767 764 761 760 760 759 760 760 761 762 763 766 767 768 770 772 775 777 780 783 786 789 791 793 795 797 800 801 803 804 806 808 810 812 814 816 818 819 821 822 823 825 826 827 829 830 831 832 832 833 834 835 837 838 839 840 840 841 842 843 843 844 844 845 845 846 846 847 847 848 848 849 849 849 849
744 743 746 749 753 756 759 764 770 778 790 797 788 785 800 794 772 774 781 779 775 765 757 755 753 753 754 753 754 755 756 758 759 760 761 763 765 768 772 774 777 780 783 785 788 790 793 795 797 798 800 801 803 805 807 809 811 813 815 816 818 820 821 823 825 826 827 828 829 830 831 832 833 834 835 836 837 838 840 841 841 842 843 843 844 844 845 845 846 846 847 847 848 849 849 849 849
740 745 751 758 765 764 768 770 772 791 802 790 779 778 788 789 769 765 772 765 755 751 750 749 747 749 749 748 749 750 752 754 754 756 757 759 762 765 769 772 775 777 780 782 785 787 790 791 793 795 797 798 800 802 804 806 809 810 812 814 816 818 819 821 822 824 825 826 827 828 828 829 830 831 832 834 835 837 838 839 840 842 842 843 843 843 844 844 845 845 846 846 847 848 848 849 849
739 746 753 766 777 776 782 785 783 802 805 782 771 772 783 790 768 752 751 742 737 741 741 741 741 742 742 742 742 743 746 748 750 753 754 756 759 763 766 768 771 774 777 779 782 784 786 788 790 792 794 795 797 800 802 804 806 808 809 811 813 815 817 818 820 821 822 823 824 825 826 827 828 829 830 832 833 835 836 838 839 841 842 842 843 843 843 844 844 844 845 845 846 846 847 848 848
741 746 754 771 789 793 799 802 798 803 795 776 772 776 785 783 757 743 744 736 732 731 727 728 731 733 735 735 736 738 740 742 745 748 750 752 755 758 761 764 767 770 772 775 778 781 783 784 787 789 790 792 794 797 799 801 803 805 807 809 811 813 814 815 817 818 819 820 821 822 823 824 825 826 828 830 832 833 834 836 838 839 841 842 842 842 843 843 843 843 844 844 845 845 845 846 847
745 747 753 769 788 801 809 810 807 802 787 775 774 779 785 777 749 736 735 729 723 722 721 723 725 727 730 730 732 734 736 737 739 742 745 747 749 752 755 758 762 765 768 771 774 776 779 781 783 785 787 789 791 793 796 798 800 802 804 807 808 810 811 813 815 816 817 818 819 820 821 822 823 825 827 829 830 832 833 834 836 837 839 840 841 841 842 842 842 843 843 844 844 844 844 845 845
742 736 742 756 766 780 794 798 798 794 783 780 783 782 780 769 746 729 723 720 716 716 718 720 722 723 724 726 730 732 733 734 735 737 739 742 744 747 750 753 757 760 763 767 769 772 774 777 779 781 783 785 787 790 792 794 797 799 802 804 806 807 809 811 812 814 815 817 818 819 820 821 823 825 826 828 829 830 831 832 834 835 837 838 839 840 841 841 841 841 842 843 843 843 843 843 844
739 732 740 749 744 750 770 777 774 774 779 784 786 777 760 747 734 721 719 720 716 715 715 717 720 719 721 725 726 727 728 729 730 733 735 737 739 742 745 748 751 755 759 762 765 767 770 772 774 776 779 782 784 786 789 791 794 796 799 801 803 805 806 808 810 811 813 814 816 818 819 821 823 825 826 828 829 830 831 831 833 834 835 837 838 839 839 839 840 840 841 841 842 842 842 842 842
739 740 743 739 728 734 760 776 772 772 779 780 776 769 754 745 736 719 717 720 716 714 715 714 716 717 720 722 721 721 722 723 724 726 728 730 733 736 739 742 746 750 754 757 759 761 764 766 769 772 775 778 781 783 785 788 791 793 796 798 800 801 803 805 807 808 810 812 814 816 818 820 822 824 825 827 828 829 831 831 832 833 834 835 836 837 838 838 839 839 840 840 841 841 841 840 840
734 741 733 729 733 735 748 770 780 781 782 775 771 766 756 757 749 725 720 725 717 711 712 713 715 716 718 716 714 715 714 716 718 719 722 724 726 729 732 736 741 744 748 750 752 755 758 761 765 768 772 774 776 779 782 786 788 791 793 794 796 798 800 802 803 805 807 809 812 814 816 818 820 821 823 825 827 828 830 831 832 833 833 834 835 836 837 837 838 838 839 839 840 840 840 839 839
721 724 715 724 746 751 753 765 775 782 783 775 771 766 755 753 746 727 723 723 715 709 709 713 715 713 713 710 709 710 710 712 715 716 719 721 721 723 726 731 736 739 742 744 747 751 755 758 761 764 767 770 773 777 780 783 785 787 789 790 792 795 797 799 800 801 804 806 809 812 814 816 817 819 820 822 825 826 828 830 831 832 832 833 834 835 836 837 837 837 838 839 839 839 839 838 838
717 717 715 720 731 740 746 750 752 765 777 774 773 772 757 742 731 724 721 715 710 707 706 709 710 706 705 704 703 706 708 709 710 712 714 714 715 718 722 727 730 733 737 740 744 748 751 754 757 760 764 767 771 774 776 779 781 782 784 786 789 792 793 795 797 799 802 804 806 808 810 813 814 816 818 819 821 824 826 828 829 830 831 832 833 834 834 835 836 836 836 837 837 837 837 837 836
722 725 727 727 727 728 735 739 739 747 762 769 772 769 750 727 717 717 713 707 704 702 699 701 701 698 698 697 698 701 703 704 705 706 707 708 710 714 718 723 726 729 733 736 741 744 747 750 753 755 760 763 767 771 772 774 775 777 779 782 785 788 790 792 795 798 801 802 803 804 806 809 811 814 815 816 819 821 823 825 827 828 829 830 831 832 833 833 833 834 834 835 835 835 835 835 835
713 720 723 724 725 729 741 749 743 738 746 753 758 759 739 712 705 707 703 700 697 693 693 695 693 692 692 692 693 695 697 699 699 699 701 703 706 709 714 719 723 727 730 734 738 741 743 746 748 751 755 759 763 767 768 768 770 773 776 779 784 787 788 790 793 795 797 798 800 802 805 807 809 812 814 815 817 818 820 822 824 825 827 827 828 829 830 830 831 831 832 833 833 833 834 833 833